Regional Weather Roundup
Issued by NWS Little Rock, AR

Home | Current Version | Previous Version | Text Only | Print | Product List | Glossary Off
Versions: 1 2 3 4 5 6 7 8 9 10 11 12 13 14 15 16 17 18 19 20 21 22 23 24 25 26 27 28 29 30 31 32 33 34 35 36 37 38 39 40 41 42 43 44 45 46 47 48 49 50

942
ASUS44 KLZK 282005
RWRLZK

WEATHER ROUNDUP FOR ARKANSAS
NATIONAL WEATHER SERVICE LITTLE ROCK AR
300 PM CDT FRI APR 28 2017

NOTE: "FAIR" INDICATES FEW OR NO CLOUDS BELOW 12,000 FEET WITH NO
SIGNIFICANT WEATHER AND/OR OBSTRUCTIONS TO VISIBILITY.

ARZ001-003-010-029-282100-
NORTHWEST ARKANSAS

CITY           SKY/WX    TMP DP  RH WIND       PRES   REMARKS
FAYETTEVILLE   CLOUDY    65  62  90 S7        29.71R
FORT SMITH     CLOUDY    70  61  73 NE8       29.68R
HARRISON       CLOUDY    65  62  90 S10       29.72S
BENTONVILLE    CLOUDY    66  61  82 SW6       29.72R
ROGERS         LGT RAIN  66  61  84 SW12      29.73R
SILOAM SPGS    CLOUDY    66  59  77 S9        29.69R
HIGHFILL       CLOUDY    66  62  87 VRB6      29.70R
SPRINGDALE     CLOUDY    64  63  94 S12       29.72S
$$

ARZ004-005-016-282100-
NORTH CENTRAL ARKANSAS

CITY           SKY/WX    TMP DP  RH WIND       PRES   REMARKS
BATESVILLE     CLOUDY    68  64  88 E3        29.74F
FLIPPIN        CLOUDY   N/A N/A N/A CALM      29.71R
MTN HOME       CLOUDY    60  59  96 S7        29.73R FOG
$$

ARZ040-041-282100-
WEST CENTRAL ARKANSAS

CITY           SKY/WX    TMP DP  RH WIND       PRES   REMARKS
MENA           CLOUDY    75  73  94 CALM      29.71R
MOUNT IDA      CLOUDY    76  67  73 VRB3      29.68S
$$

ARZ009-017-025-026-028-282100-
NORTHEAST ARKANSAS

CITY           SKY/WX    TMP DP  RH WIND       PRES   REMARKS
JONESBORO      CLOUDY    76  70  82 S13       29.74S
WALNUT RIDGE   CLOUDY    70  64  83 CALM      29.75R
BLYTHEVILLE    PTSUNNY   79  71  76 S15G28    29.76S
$$

ARZ022-023-033-042-044-282100-
CENTRAL ARKANSAS

CITY           SKY/WX    TMP DP  RH WIND       PRES   REMARKS
LITTLE ROCK    CLOUDY    80  72  76 S13       29.72S
N LITTLE ROCK    N/A     77  70  80 S6        29.73S
JACKSONVILLE   CLOUDY    78  71  79 S8        29.72S
CONWAY           N/A     72  68  88 CALM      29.69F FOG
SEARCY         CLOUDY    76  72  87 S7        29.74S
HOT SPRINGS    CLOUDY    77  71  82 S6        29.71F
RUSSELLVILLE   CLOUDY    68  64  87 NE3       29.71S
CLINTON        CLOUDY    64  63  94 CALM      29.73S FOG
$$

ARZ036-282100-
EAST ARKANSAS

CITY           SKY/WX    TMP DP  RH WIND       PRES   REMARKS
WEST MEMPHIS   CLOUDY    79  74  84 S14       29.75F
$$

ARZ050-053-066-070-073-282100-
SOUTHWEST ARKANSAS

CITY           SKY/WX    TMP DP  RH WIND       PRES   REMARKS
ARKADELPHIA    CLOUDY    81  72  74 S6        29.69F HX  85
CAMDEN         MOSUNNY   88  68  51 S13G22    29.69S HX  91
TEXARKANA      CLOUDY    85  70  60 S12G22    29.67S HX  89
EL DORADO      PTSUNNY   86  71  60 S13G21    29.71F HX  91
DE QUEEN       CLOUDY    79  72  79 VRB5      29.65S
$$

ARZ056-057-069-282100-
SOUTHEAST ARKANSAS

CITY           SKY/WX    TMP DP  RH WIND       PRES   REMARKS
PINE BLUFF     PTSUNNY   85  72  65 S18G25    29.71F HX  91
STUTTGART      PTSUNNY   82  64  54 S18       29.73F
MONTICELLO     MOSUNNY   88  70  55 S15G30    29.73S HX  93

$$






USA.gov is the U.S. government's official web portal to all federal, state and local government web resources and services.